Location: Jalan Sepang
(2.8072°N, 101.8021°E)
Time: 04:39:46
(UTC+00:00)

Cosmos 1315 Rocket - Pass Details

Date: 15 May 2026
Orbit: 491 x 508 km, 81.2° (Epoch: 7 June)

Event Time Altitude Azimuth Distance (km) Brightness Sun altitude
Rises 22:28:35 0° 355° (N) 2,574 6.4 -8.6°
Reaches altitude 10° 22:30:41 10° 355° (N) 1,697 5.5 -8.2°
Maximum altitude 22:34:25 90° 330° (NNW) 506 2.6 -7.3°
Drops below altitude 10° 22:38:11 10° 175° (S) 1,714 5.2 -6.4°
Sets 22:40:19 0° 175° (S) 2,603 6.1 -5.9°
